Location: Newark
(33.6333°S, 78.8500°W)
Time: 08:17:18
(UTC+00:00)

A-11 Canister half - Visible Passes

Search period start: 22 October 2019 00:00
Search period end: 01 November 2019 00:00
Orbit: 1527 x 1682 km, 47.3° (Epoch: 21 October)

Date Brightness Start Highest point End Pass type
(mag) Time Alt. Az. Time Alt. Az. Time Alt. Az.
22 Oct 11.0 09:33:32 10° NNE 09:39:58 20° ENE 09:46:31 10° E visible
23 Oct 11.0 09:12:22 10° NNE 09:18:25 18° ENE 09:24:31 10° E visible
24 Oct 11.0 08:51:17 10° NNE 08:56:50 17° ENE 09:02:28 10° E visible
25 Oct 11.0 08:30:17 10° NNE 08:35:17 15° ENE 08:40:21 10° E visible
26 Oct 11.0 08:09:22 10° NNE 08:13:44 14° ENE 08:18:08 10° E visible
27 Oct 11.0 07:48:37 10° NE 07:52:10 12° ENE 07:55:46 10° E visible
27 Oct 9.6 09:46:16 10° NNW 09:55:44 59° NE 10:05:32 10° ESE visible
28 Oct 11.0 07:28:10 10° NE 07:30:37 11° ENE 07:33:05 10° ENE visible
28 Oct 9.6 09:24:44 10° NNW 09:34:07 56° NE 09:43:49 10° ESE visible
29 Oct 9.6 09:03:20 10° NNW 09:12:30 53° NE 09:22:07 10° ESE visible
30 Oct 9.7 08:43:12 16° NNW 08:50:54 50° NE 09:00:23 10° ESE visible
31 Oct 9.7 08:23:00 21° NNW 08:29:18 47° NE 08:38:39 10° ESE visible
